Regional Weather Roundup
Issued by NWS

Home | Current Version | Previous Version | Text Only | Print | Product List | Glossary Off
Versions: 1 2 3 4 5 6 7 8 9 10 11 12 13 14 15 16 17 18 19 20 21 22 23 24 25 26 27 28 29 30 31 32 33 34 35 36 37 38 39 40 41 42 43 44 45 46 47 48 49 50

000
ASUS43 KOAX 291902
RWRNE

WEATHER ROUNDUP FOR NEBRASKA
NATIONAL WEATHER SERVICE OMAHA NE
200 PM CDT FRI AUG 29 2014

NOTES: SATELLITE DATA IS BEING USED TO AUGMENT CLOUD COVER ABOVE
       12000 FEET.
       "FAIR" INDICATES FEW OR NO CLOUDS BELOW 12,000 FEET WITH NO
       SIGNIFICANT WEATHER AND/OR OBSTRUCTIONS TO VISIBILITY.

  * THESE STATIONS DO NOT REPORT WEATHER SUCH AS RAIN...SNOW OR FOG.

NEZ001>004-019>022-054>056-292000-
NEBRASKA PANHANDLE

CITY           SKY/WX    TMP DP  RH WIND       PRES   REMARKS
SCOTTSBLUFF    MOSUNNY   76  57  51 W6        30.03F
ALLIANCE       MOSUNNY   77  54  44 N18       30.01R
CHADRON        PTSUNNY   73  55  53 NE13      30.01R
KIMBALL        MOSUNNY   76  49  38 N17G25    30.08R
SIDNEY         SUNNY     83  48  29 N15       30.03S
$$

NEZ057>060-069>072-079>082-292000-
SOUTHWEST NEBRASKA

CITY           SKY/WX    TMP DP  RH WIND       PRES   REMARKS
NORTH PLATTE   SUNNY     84  51  31 N16       29.89S
IMPERIAL       SUNNY     83  52  34 N14       29.94S
LEXINGTON      SUNNY     81  58  45 N7        29.88S
MCCOOK         SUNNY     83  55  38 N6        29.89F
OGALLALA       MOSUNNY   81  52  37 NW12G21   29.94S
$$

NEZ005>010-023>029-035>040-094-292000-
NORTH CENTRAL NEBRASKA

CITY           SKY/WX    TMP DP  RH WIND       PRES   REMARKS
VALENTINE      SUNNY     81  60  48 N15       29.88S
AINSWORTH      SUNNY     79  60  51 N12G21    29.87F
BROKEN BOW     SUNNY     81  60  48 N15       29.86F
O`NEILL        RAIN      69  67  96 N9        29.84S
ORD            PTSUNNY   77  64  64 NW13      29.82F
THEDFORD       SUNNY     84  56  38 N15G25    29.90S
$$

NEZ041-046>049-061>064-073>077-083>087-292000-
SOUTH CENTRAL NEBRASKA

CITY           SKY/WX    TMP DP  RH WIND       PRES   REMARKS
GRAND ISLAND   PTSUNNY   77  65  66 CALM      29.84F
AURORA         CLOUDY    69  68  96 SW5       29.84F
HASTINGS       CLOUDY    76  63  64 CALM      29.85F
HEBRON         CLOUDY    71  64  79 S3        29.84F
HOLDREGE       MOSUNNY   78  60  54 CALM      29.87S
KEARNEY *      PTSUNNY   79  63  57 N6        29.86F
$$

NEZ011>018-030>034-042>045-292000-
NORTHEAST NEBRASKA

CITY           SKY/WX    TMP DP  RH WIND       PRES   REMARKS
NORFOLK        CLOUDY    72  67  84 W6        29.81F
ALBION         LGT RAIN  71  65  83 SW3       29.83S
BLAIR          CLOUDY    76  69  78 S5        29.80F
FREMONT        CLOUDY    76  69  78 S7        29.80F
TEKAMAH        CLOUDY    76  70  82 S5        29.79F
WAYNE          CLOUDY    71  67  87 SW6       29.80F
$$

NEZ050>053-065>068-078-088>093-292000-
SOUTHEAST NEBRASKA

CITY           SKY/WX    TMP DP  RH WIND       PRES   REMARKS
LINCOLN        LGT RAIN  74  68  81 SW9       29.82F
OMAHA EPPLEY   CLOUDY    76  70  82 SE7       29.79F
BEATRICE       LGT RAIN  72  67  85 W10G17    29.85S
FALLS CITY     PTSUNNY   79  68  69 S5        29.82F
NEBRASKA CITY  PTSUNNY   73  72  97 SW8       29.83S
PLATTSMOUTH    CLOUDY    74  68  81 S6        29.82S
$$

NEZ044-045-051>053-067-292000-
OMAHA AREA

CITY           SKY/WX    TMP DP  RH WIND       PRES   REMARKS
OMAHA EPPLEY   CLOUDY    76  70  82 SE7       29.79F
BLAIR          CLOUDY    76  69  78 S5        29.80F
FREMONT        CLOUDY    76  69  78 S7        29.80F
MILLARD        CLOUDY    77  69  77 S3        29.79F
OFFUTT AFB     PTSUNNY   75  73  91 S5        29.80F
PLATTSMOUTH    CLOUDY    74  68  81 S6        29.82S
WAHOO          CLOUDY    75  67  77 SW8       29.80F
$$



USA.gov is the U.S. government's official web portal to all federal, state and local government web resources and services.